This demonstration page uses our WeatherBlox Daily Observations layout. Learn more.

Left ArrowRight Arrow

41.55636, -103.73856

Hourly Observations for February 10, 2020

Temp ( °F °C ) Dew Point ( °F °C ) Humidity (%) Winds ( mph kmh ) Pressure ( in mb ) Visibility ( mi km ) Precip ( " mm )
12:58 am 00:58 Mostly Cloudy 25 -3.8 17 -8.4 71 71 SSW 9 15 30.18 1022 10 16 N/A
1:58 am 01:58 Mostly Cloudy 23 -5.2 16 -8.7 77 77 SSW 10 17 30.19 1022 10 16 N/A
2:58 am 02:58 Clear 23 -4.8 17 -8.4 76 76 SW 14 22 30.16 1022 10 16 N/A
3:58 am 03:58 Clear 24 -4.6 17 -8.3 76 76 SSW 21 33 30.14 1021 10 16 N/A
4:58 am 04:58 Clear 23 -4.8 18 -8 79 79 SW 22 35 30.12 1020 10 16 N/A
5:58 am 05:58 Clear 23 -5 18 -7.8 81 81 SW 21 33 30.12 1020 10 16 N/A
6:58 am 06:58 Clear 23 -4.8 17 -8.3 77 77 WSW 14 22 30.12 1020 10 16 N/A
7:58 am 07:58 Clear 21 -5.9 16 -9 79 79 WNW 10 17 30.12 1020 10 16 N/A
8:58 am 08:58 Clear 21 -6.3 13 -10.7 71 71 W 8 13 30.13 1020 10 16 N/A
9:58 am 09:58 Clear 21 -6.3 12 -11.1 69 69 WNW 9 15 30.14 1021 10 16 N/A
10:58 am 10:58 Clear 21 -6.1 12 -11 69 69 WNW 10 17 30.14 1021 10 16 N/A
11:58 am 11:58 Mostly Cloudy 22 -5.7 12 -11 67 67 N N/A 30.14 1021 10 16 N/A
12:58 pm 12:58 Mostly Cloudy 22 -5.8 13 -10.5 70 70 W 6 9 30.15 1021 10 16 N/A
1:58 pm 13:58 Cloudy 24 -4.4 15 -9.3 69 69 W 8 13 30.19 1023 10 16 N/A
2:58 pm 14:58 Mostly Cloudy 26 -3.3 17 -8.3 69 69 WNW 7 11 30.20 1023 10 16 N/A
3:58 pm 15:58 Mostly Cloudy 28 -2.1 16 -9 60 60 NW 15 24 30.21 1023 10 16 N/A
4:58 pm 16:58 Mostly Sunny 31 -0.8 16 -9.1 54 54 NNW 17 28 30.22 1023 10 16 N/A
5:58 pm 17:58 Mostly Sunny 32 0.2 17 -8.6 52 52 NNW 16 26 30.22 1023 10 16 N/A
6:58 pm 18:58 Mostly Sunny 33 0.8 16 -8.9 49 49 NW 18 30 30.21 1023 10 16 N/A
7:58 pm 19:58 Mostly Cloudy 33 0.5 16 -9 49 49 NNW 16 26 30.20 1023 10 16 N/A
8:58 pm 20:58 Mostly Cloudy 33 0.3 18 -8 54 54 N 20 31 30.20 1023 10 16 N/A
9:58 pm 21:58 Mostly Cloudy 31 -0.4 16 -8.8 53 53 N 17 28 30.23 1024 10 16 N/A
10:58 pm 22:58 Mostly Cloudy 31 -0.8 14 -9.8 51 51 N 16 26 30.24 1024 10 16 N/A
11:58 pm 23:58 Mostly Cloudy 29 -1.7 14 -10 54 54 N 16 26 30.28 1025 10 16 N/A

Powered by AerisWeather